Back to catalog

ATLAS 5 CENTAUR R/B

AliveHEO
NORAD 51851·ROCKET BODY·🇺🇸 United States

Launched Mar 1, 2022 from Cape Canaveral Space Force Station

Loading…

Next Passes (next 24 hours)

TLE

FreshSource: Space-Track

Epoch: Sep 8, 2026, 22:38 UTC

1 51851U 22021B   26251.94362414 -.00000089  00000-0  00000+0 0  9993
2 51851   7.3770 164.3787 4778502 140.4759 266.3450  1.85572075 30666

Track ATLAS 5 CENTAUR R/B in real time with AllMySat

Download on the App Store